When you browse on this site, cookies collect data to enhance your experience and personalize the content and advertising you see.
Visit our Privacy Policy to learn more. By continuing to use the site, you agree to this use of cookies and data.

Stündliche Wetter Gagarino

Heute, 14 Juli, Dienstag

Zeit Temperatur Niederschläge Wind Luftdruck Luftfeuchtigkeit
00:00 +10°C° 0 mm 2 m/S 746 mmHg 94%
01:00 +9°C° 0 mm 2 m/S 746 mmHg 95%
02:00 +9°C° 0 mm 2 m/S 746 mmHg 96%
03:00 +9°C° 0 mm 2 m/S 746 mmHg 96%
04:00 +9°C° 0 mm 2 m/S 746 mmHg 97%
05:00 +9°C° 0 mm 2 m/S 746 mmHg 97%
06:00 +10°C° 0 mm 2 m/S 746 mmHg 93%
07:00 +13°C° 0 mm 2 m/S 746 mmHg 88%
08:00 +15°C° 0 mm 2 m/S 745 mmHg 83%
09:00 +16°C° 0 mm 3 m/S 745 mmHg 78%
10:00 +17°C° 0 mm 3 m/S 745 mmHg 73%
11:00 +18°C° 0 mm 3 m/S 745 mmHg 68%
12:00 +19°C° 0.1 mm 3 m/S 745 mmHg 68%
13:00 +19°C° 0.1 mm 3 m/S 745 mmHg 68%
14:00 +19°C° 0.1 mm 4 m/S 745 mmHg 67%
15:00 +19°C° 0.1 mm 4 m/S 744 mmHg 68%
16:00 +19°C° 0.1 mm 4 m/S 744 mmHg 69%
17:00 +19°C° 0.1 mm 4 m/S 744 mmHg 71%
18:00 +18°C° 0 mm 3 m/S 744 mmHg 76%
19:00 +17°C° 0 mm 3 m/S 743 mmHg 81%
20:00 +15°C° 0 mm 2 m/S 743 mmHg 87%
21:00 +13°C° 0 mm 3 m/S 743 mmHg 89%
22:00 +12°C° 0 mm 3 m/S 744 mmHg 91%
23:00 +11°C° 0 mm 3 m/S 744 mmHg 94%

Morgen, 15 Juli, Mittwoch

Zeit Temperatur Niederschläge Wind Luftdruck Luftfeuchtigkeit
00:00 +12°C° 0 mm 2 m/S 744 mmHg 94%
01:00 +12°C° 0 mm 2 m/S 743 mmHg 94%
02:00 +10°C° 0 mm 2 m/S 743 mmHg 95%
03:00 +10°C° 0 mm 2 m/S 743 mmHg 95%
04:00 +10°C° 0 mm 2 m/S 743 mmHg 95%
05:00 +10°C° 0 mm 2 m/S 743 mmHg 96%
06:00 +13°C° 0 mm 2 m/S 743 mmHg 92%
07:00 +13°C° 0 mm 3 m/S 744 mmHg 89%
08:00 +16°C° 0 mm 3 m/S 744 mmHg 85%
09:00 +17°C° 0.1 mm 3 m/S 744 mmHg 81%
10:00 +19°C° 0.1 mm 3 m/S 743 mmHg 77%
11:00 +20°C° 0.1 mm 3 m/S 743 mmHg 73%
12:00 +20°C° 0.4 mm 3 m/S 743 mmHg 73%
13:00 +20°C° 0.4 mm 3 m/S 743 mmHg 73%
14:00 +20°C° 0.4 mm 3 m/S 743 mmHg 73%
15:00 +20°C° 0.4 mm 2 m/S 743 mmHg 73%
16:00 +20°C° 0.4 mm 2 m/S 743 mmHg 74%
17:00 +21°C° 0.4 mm 2 m/S 743 mmHg 74%
18:00 +20°C° 0.1 mm 1 m/S 743 mmHg 77%
19:00 +19°C° 0.1 mm 1 m/S 743 mmHg 80%
20:00 +16°C° 0.1 mm 0 m/S 743 mmHg 83%
21:00 +15°C° 0 mm 0 m/S 743 mmHg 84%
22:00 +14°C° 0 mm 0 m/S 743 mmHg 85%
23:00 +13°C° 0 mm 0 m/S 743 mmHg 86%

übermorgen, 16 Juli, Donnerstag

Zeit Temperatur Niederschläge Wind Luftdruck Luftfeuchtigkeit
00:00 +14°C° 0 mm 1 m/S 743 mmHg 87%
01:00 +14°C° 0 mm 1 m/S 743 mmHg 89%
02:00 +13°C° 0 mm 1 m/S 743 mmHg 90%
03:00 +13°C° 0 mm 1 m/S 743 mmHg 90%
04:00 +13°C° 0 mm 1 m/S 743 mmHg 91%
05:00 +13°C° 0 mm 1 m/S 742 mmHg 91%
06:00 +15°C° 0 mm 1 m/S 742 mmHg 88%
07:00 +18°C° 0 mm 1 m/S 742 mmHg 84%
08:00 +19°C° 0 mm 1 m/S 743 mmHg 81%
09:00 +21°C° 0.7 mm 1 m/S 742 mmHg 77%
10:00 +21°C° 0.7 mm 2 m/S 742 mmHg 73%
11:00 +23°C° 0.7 mm 2 m/S 742 mmHg 69%
12:00 +23°C° 1.2 mm 2 m/S 742 mmHg 70%
13:00 +24°C° 1.2 mm 2 m/S 742 mmHg 70%
14:00 +24°C° 1.2 mm 3 m/S 741 mmHg 71%
15:00 +23°C° 1.2 mm 2 m/S 741 mmHg 74%
16:00 +23°C° 1.2 mm 2 m/S 741 mmHg 76%
17:00 +23°C° 1.2 mm 2 m/S 740 mmHg 79%
18:00 +20°C° 0.4 mm 2 m/S 740 mmHg 81%
19:00 +20°C° 0.4 mm 1 m/S 740 mmHg 84%
20:00 +19°C° 0.4 mm 1 m/S 740 mmHg 87%
21:00 +19°C° 0.1 mm 1 m/S 740 mmHg 87%
22:00 +18°C° 0.1 mm 1 m/S 741 mmHg 88%
23:00 +18°C° 0.1 mm 1 m/S 741 mmHg 88%

17 Juli, Freitag

Zeit Temperatur Niederschläge Wind Luftdruck Luftfeuchtigkeit
00:00 +18°C° 0.3 mm 1 m/S 741 mmHg 90%
01:00 +16°C° 0.3 mm 1 m/S 741 mmHg 92%
02:00 +16°C° 0.3 mm 1 m/S 741 mmHg 93%
03:00 +16°C° 0.2 mm 1 m/S 741 mmHg 94%
04:00 +16°C° 0.2 mm 1 m/S 741 mmHg 95%
05:00 +16°C° 0.2 mm 1 m/S 741 mmHg 96%
06:00 +16°C° 0.2 mm 1 m/S 741 mmHg 95%
07:00 +18°C° 0.2 mm 1 m/S 741 mmHg 94%
08:00 +18°C° 0.2 mm 1 m/S 742 mmHg 93%
09:00 +19°C° 0.5 mm 1 m/S 742 mmHg 90%
10:00 +20°C° 0.5 mm 1 m/S 742 mmHg 87%
11:00 +20°C° 0.5 mm 2 m/S 742 mmHg 83%
12:00 +21°C° 0.8 mm 2 m/S 742 mmHg 82%
13:00 +22°C° 0.8 mm 1 m/S 742 mmHg 80%
14:00 +23°C° 0.8 mm 1 m/S 742 mmHg 79%
15:00 +23°C° 0.7 mm 1 m/S 742 mmHg 78%
16:00 +23°C° 0.7 mm 1 m/S 742 mmHg 77%
17:00 +23°C° 0.7 mm 1 m/S 742 mmHg 77%
18:00 +22°C° 0.5 mm 1 m/S 743 mmHg 80%
19:00 +21°C° 0.5 mm 1 m/S 743 mmHg 83%
20:00 +20°C° 0.5 mm 1 m/S 743 mmHg 87%
21:00 +19°C° 0.2 mm 1 m/S 743 mmHg 88%
22:00 +18°C° 0.2 mm 1 m/S 743 mmHg 90%
23:00 +18°C° 0.2 mm 1 m/S 743 mmHg 91%

18 Juli, Samstag

Zeit Temperatur Niederschläge Wind Luftdruck Luftfeuchtigkeit
00:00 +16°C° 0.1 mm 1 m/S 743 mmHg 92%
01:00 +16°C° 0.1 mm 1 m/S 744 mmHg 93%
02:00 +16°C° 0.1 mm 1 m/S 744 mmHg 94%
03:00 +16°C° 0 mm 1 m/S 744 mmHg 94%
04:00 +15°C° 0 mm 2 m/S 744 mmHg 95%
05:00 +15°C° 0 mm 2 m/S 744 mmHg 96%
06:00 +16°C° 0 mm 2 m/S 744 mmHg 94%
07:00 +18°C° 0 mm 3 m/S 744 mmHg 91%
08:00 +19°C° 0 mm 3 m/S 745 mmHg 89%
09:00 +20°C° 0.1 mm 3 m/S 745 mmHg 84%
10:00 +22°C° 0.1 mm 3 m/S 745 mmHg 79%
11:00 +23°C° 0.1 mm 4 m/S 745 mmHg 74%
12:00 +23°C° 0.7 mm 4 m/S 745 mmHg 73%
13:00 +25°C° 0.7 mm 4 m/S 745 mmHg 72%
14:00 +25°C° 0.7 mm 4 m/S 745 mmHg 72%
15:00 +25°C° 0.8 mm 4 m/S 744 mmHg 74%
16:00 +23°C° 0.8 mm 4 m/S 744 mmHg 76%
17:00 +22°C° 0.8 mm 4 m/S 744 mmHg 79%
18:00 +21°C° 0.2 mm 3 m/S 744 mmHg 81%
19:00 +20°C° 0.2 mm 3 m/S 744 mmHg 84%
20:00 +19°C° 0.2 mm 3 m/S 744 mmHg 86%
21:00 +19°C° 0.1 mm 3 m/S 745 mmHg 87%
22:00 +18°C° 0.1 mm 3 m/S 745 mmHg 89%
23:00 +17°C° 0.1 mm 3 m/S 745 mmHg 90%

19 Juli, Sonntag

Zeit Temperatur Niederschläge Wind Luftdruck Luftfeuchtigkeit
00:00 +17°C° 0 mm 3 m/S 745 mmHg 91%
01:00 +16°C° 0 mm 3 m/S 745 mmHg 92%
02:00 +16°C° 0 mm 3 m/S 745 mmHg 93%
03:00 +16°C° 0.1 mm 3 m/S 745 mmHg 93%
04:00 +16°C° 0.1 mm 2 m/S 745 mmHg 93%
05:00 +15°C° 0.1 mm 2 m/S 745 mmHg 94%
06:00 +16°C° 0.1 mm 2 m/S 745 mmHg 90%
07:00 +17°C° 0.1 mm 3 m/S 745 mmHg 87%
08:00 +19°C° 0.1 mm 3 m/S 745 mmHg 83%
09:00 +20°C° 0 mm 3 m/S 745 mmHg 78%
10:00 +21°C° 0 mm 3 m/S 745 mmHg 74%
11:00 +22°C° 0 mm 3 m/S 745 mmHg 69%
12:00 +24°C° 0 mm 3 m/S 745 mmHg 66%
13:00 +25°C° 0 mm 3 m/S 745 mmHg 63%
14:00 +25°C° 0 mm 4 m/S 745 mmHg 60%
15:00 +25°C° 0 mm 4 m/S 744 mmHg 62%
16:00 +25°C° 0 mm 4 m/S 744 mmHg 64%
17:00 +25°C° 0 mm 4 m/S 744 mmHg 65%
18:00 +22°C° 0 mm 3 m/S 744 mmHg 70%
19:00 +20°C° 0 mm 3 m/S 744 mmHg 74%
20:00 +19°C° 0 mm 2 m/S 744 mmHg 78%
21:00 +18°C° 0 mm 2 m/S 744 mmHg 80%
22:00 +17°C° 0 mm 2 m/S 744 mmHg 81%
23:00 +16°C° 0 mm 2 m/S 744 mmHg 82%
Mehr zeigen